THY7ED LDDU-LTFM

Flight info

Callsign THY7ED
Flight time 1h 18m
Altitude 37000
Route MOKUN DCT RETRA DCT ENFAR DCT SKJ DCT SIN DCT VELBA DCT AYTEK
Aircraft B738/M-SDE2E3FGHIRWXY/LB1

Departure

Time 2026-05-07 20:47
Airport Dubrovnik Ruđer Bošković Airport (LDDU)

Arrival

Time 2026-05-07 22:05
Airport İstanbul Airport (LTFM)
Time Latitude Longitude Altitude Speed Heading
2026-05-07 20:35 42.56087 18.26297 535 ft 0 kts 208°
2026-05-07 20:39 42.56094 18.26302 535 ft 4 kts 208°
2026-05-07 20:39 42.56116 18.26320 535 ft 4 kts 223°
2026-05-07 20:39 42.56129 18.26348 535 ft 4 kts 266°
2026-05-07 20:39 42.56124 18.26382 535 ft 3 kts 297°
2026-05-07 20:40 42.56121 18.26390 535 ft 0 kts 298°
2026-05-07 20:41 42.56122 18.26387 535 ft 3 kts 298°
2026-05-07 20:42 42.56157 18.26297 535 ft 18 kts 299°
2026-05-07 20:42 42.56221 18.26140 535 ft 19 kts 294°
2026-05-07 20:42 42.56281 18.25989 535 ft 18 kts 297°
2026-05-07 20:42 42.56337 18.25845 535 ft 17 kts 297°
2026-05-07 20:43 42.56392 18.25711 535 ft 16 kts 298°
2026-05-07 20:43 42.56442 18.25583 535 ft 15 kts 298°
2026-05-07 20:43 42.56489 18.25463 535 ft 14 kts 298°
2026-05-07 20:43 42.56533 18.25350 535 ft 13 kts 298°
2026-05-07 20:44 42.56576 18.25243 535 ft 13 kts 299°
2026-05-07 20:44 42.56617 18.25142 535 ft 12 kts 299°
2026-05-07 20:44 42.56656 18.25044 535 ft 12 kts 297°
2026-05-07 20:44 42.56692 18.24948 535 ft 11 kts 294°
2026-05-07 20:45 42.56727 18.24857 535 ft 11 kts 298°
2026-05-07 20:45 42.56763 18.24771 535 ft 10 kts 299°
2026-05-07 20:45 42.56803 18.24694 535 ft 10 kts 315°
2026-05-07 20:45 42.56863 18.24657 535 ft 10 kts 350°
2026-05-07 20:46 42.56954 18.24680 535 ft 15 kts 45°
2026-05-07 20:46 42.56928 18.24829 535 ft 36 kts 118°
2026-05-07 20:46 42.56659 18.25508 535 ft 124 kts 118°
2026-05-07 20:46 42.56133 18.26837 649 ft 187 kts 118°
2026-05-07 20:47 42.55495 18.28459 1498 ft 204 kts 117°
2026-05-07 20:47 42.54782 18.30181 2596 ft 212 kts 117°
2026-05-07 20:47 42.54126 18.31943 3811 ft 212 kts 110°
2026-05-07 20:47 42.53542 18.33831 4864 ft 226 kts 104°
2026-05-07 20:48 42.52861 18.35858 5753 ft 249 kts 121°
2026-05-07 20:48 42.51512 18.37460 6590 ft 271 kts 151°
2026-05-07 20:48 42.49649 18.37952 7563 ft 276 kts 184°
2026-05-07 20:48 42.47836 18.37128 8360 ft 281 kts 214°
2026-05-07 20:49 42.46473 18.35257 9285 ft 280 kts 232°
2026-05-07 20:49 42.45150 18.33322 10270 ft 281 kts 221°
2026-05-07 20:49 42.43536 18.31757 11033 ft 292 kts 214°
2026-05-07 20:49 42.41676 18.30445 11533 ft 312 kts 206°
2026-05-07 20:50 42.39597 18.29420 12229 ft 322 kts 201°
2026-05-07 20:50 42.37440 18.28523 13009 ft 328 kts 200°
2026-05-07 20:50 42.35238 18.27615 13769 ft 332 kts 201°
2026-05-07 20:50 42.33031 18.26642 14549 ft 336 kts 204°
2026-05-07 20:51 42.30800 18.25642 15317 ft 340 kts 202°
2026-05-07 20:51 42.28540 18.24641 16046 ft 344 kts 203°
2026-05-07 20:51 42.26261 18.23596 16755 ft 349 kts 204°
2026-05-07 20:51 42.23824 18.23009 17425 ft 367 kts 185°
2026-05-07 20:52 42.21275 18.23779 18064 ft 389 kts 161°
2026-05-07 20:52 42.19037 18.25925 18701 ft 405 kts 136°
2026-05-07 20:52 42.17529 18.29155 19332 ft 414 kts 109°
2026-05-07 20:52 42.17021 18.32968 19925 ft 417 kts 87°
2026-05-07 20:53 42.17528 18.36793 20549 ft 414 kts 69°
2026-05-07 20:53 42.18404 18.40507 21151 ft 419 kts 70°
2026-05-07 20:53 42.19061 18.44377 21702 ft 426 kts 74°
2026-05-07 20:53 42.19493 18.48351 22274 ft 432 kts 81°
2026-05-07 20:54 42.19593 18.52419 22839 ft 437 kts 87°
2026-05-07 20:54 42.19444 18.56535 23366 ft 442 kts 91°
2026-05-07 20:54 42.19195 18.60676 23896 ft 445 kts 91°
2026-05-07 20:54 42.18939 18.64848 24405 ft 449 kts 92°
2026-05-07 20:55 42.18662 18.69015 24888 ft 453 kts 93°
2026-05-07 20:55 42.18348 18.73255 25361 ft 456 kts 94°
2026-05-07 20:55 42.18021 18.77530 25839 ft 460 kts 94°
2026-05-07 20:55 42.17690 18.81830 26296 ft 463 kts 94°
2026-05-07 20:56 42.17353 18.86162 26738 ft 467 kts 94°
2026-05-07 20:56 42.17013 18.90520 27183 ft 470 kts 94°
2026-05-07 20:56 42.16670 18.94913 27577 ft 474 kts 94°
2026-05-07 20:56 42.16318 18.99350 27994 ft 476 kts 94°
2026-05-07 20:57 42.15985 19.03806 28387 ft 480 kts 93°
2026-05-07 20:57 42.15660 19.08289 28789 ft 482 kts 94°
2026-05-07 20:57 42.15321 19.12801 29161 ft 485 kts 94°
2026-05-07 20:57 42.14980 19.17336 29533 ft 488 kts 93°
2026-05-07 20:58 42.14639 19.21882 29918 ft 490 kts 92°
2026-05-07 20:58 42.14291 19.26473 30249 ft 493 kts 93°
2026-05-07 20:58 42.13925 19.31077 30618 ft 495 kts 94°
2026-05-07 20:58 42.13566 19.35696 30974 ft 496 kts 94°
2026-05-07 20:59 42.13203 19.40326 31291 ft 499 kts 92°
2026-05-07 20:59 42.12851 19.44983 31655 ft 499 kts 94°
2026-05-07 20:59 42.12463 19.49625 32069 ft 499 kts 94°
2026-05-07 20:59 42.12078 19.54255 32526 ft 497 kts 95°
2026-05-07 21:00 42.11696 19.58876 32938 ft 496 kts 95°
2026-05-07 21:00 42.11316 19.63484 33409 ft 493 kts 95°
2026-05-07 21:00 42.10939 19.68057 33854 ft 490 kts 94°
2026-05-07 21:00 42.10568 19.72607 34256 ft 489 kts 91°
2026-05-07 21:01 42.10196 19.77165 34556 ft 490 kts 94°
2026-05-07 21:01 42.09815 19.81728 34915 ft 489 kts 94°
2026-05-07 21:01 42.09438 19.86257 35271 ft 489 kts 95°
2026-05-07 21:01 42.09051 19.90818 35572 ft 489 kts 94°
2026-05-07 21:02 42.08667 19.95364 35891 ft 489 kts 94°
2026-05-07 21:02 42.08280 19.99919 36204 ft 488 kts 94°
2026-05-07 21:02 42.07897 20.04447 36515 ft 488 kts 94°
2026-05-07 21:02 42.07507 20.08999 36759 ft 489 kts 94°
2026-05-07 21:03 42.07115 20.13550 36995 ft 491 kts 94°
2026-05-07 21:03 42.06329 20.22725 37016 ft 493 kts 93°
2026-05-07 21:04 42.05537 20.31851 37017 ft 489 kts 94°
2026-05-07 21:04 42.04733 20.40927 37018 ft 488 kts 94°
2026-05-07 21:05 42.03921 20.50005 37020 ft 489 kts 95°
2026-05-07 21:05 42.03102 20.59089 37021 ft 489 kts 95°
2026-05-07 21:06 42.02281 20.68167 37022 ft 489 kts 95°
2026-05-07 21:06 42.01492 20.77195 37028 ft 489 kts 93°
2026-05-07 21:07 42.00706 20.86281 37038 ft 489 kts 91°
2026-05-07 21:07 41.99907 20.95366 37041 ft 489 kts 92°
2026-05-07 21:08 41.99044 21.04418 37043 ft 487 kts 94°
2026-05-07 21:08 41.98142 21.13439 37043 ft 487 kts 92°
2026-05-07 21:09 41.97342 21.22483 37049 ft 487 kts 90°
2026-05-07 21:09 41.96667 21.31537 37047 ft 487 kts 91°
2026-05-07 21:10 41.95810 21.40568 37051 ft 487 kts 92°
2026-05-07 21:10 41.94854 21.49576 37052 ft 487 kts 92°
2026-05-07 21:11 41.93966 21.58600 37060 ft 487 kts 90°
2026-05-07 21:11 41.94395 21.72136 37034 ft 484 kts 78°
2026-05-07 21:12 41.94876 21.81166 37049 ft 485 kts 80°
2026-05-07 21:12 41.95356 21.90194 37050 ft 485 kts 81°
2026-05-07 21:13 41.95871 21.99213 37049 ft 484 kts 82°
2026-05-07 21:13 41.96427 22.08240 37047 ft 484 kts 82°
2026-05-07 21:14 41.96963 22.17254 37045 ft 484 kts 82°
2026-05-07 21:14 41.97496 22.26273 37043 ft 484 kts 81°
2026-05-07 21:15 41.97942 22.33770 37041 ft 484 kts 81°
2026-05-07 21:15 41.98081 22.42841 37042 ft 486 kts 89°
2026-05-07 21:16 41.97788 22.51921 37040 ft 486 kts 89°
2026-05-07 21:16 41.97517 22.60994 37038 ft 485 kts 89°
2026-05-07 21:17 41.97248 22.70058 37038 ft 486 kts 89°
2026-05-07 21:17 41.96975 22.79133 37037 ft 486 kts 90°
2026-05-07 21:18 41.96736 22.88143 37036 ft 486 kts 88°
2026-05-07 21:18 41.96489 22.97206 37037 ft 486 kts 87°
2026-05-07 21:19 41.96253 23.06273 37032 ft 486 kts 88°
2026-05-07 21:19 41.95930 23.15409 37031 ft 486 kts 92°
2026-05-07 21:20 41.95536 23.24476 37030 ft 486 kts 91°
2026-05-07 21:20 41.95167 23.33473 37030 ft 485 kts 91°
2026-05-07 21:21 41.94881 23.42576 37030 ft 485 kts 90°
2026-05-07 21:21 41.94582 23.51567 37031 ft 485 kts 91°
2026-05-07 21:22 41.94260 23.60615 37031 ft 485 kts 91°
2026-05-07 21:22 41.93926 23.69669 37030 ft 485 kts 91°
2026-05-07 21:23 41.93584 23.78714 37031 ft 485 kts 91°
2026-05-07 21:23 41.93233 23.87771 37031 ft 485 kts 91°
2026-05-07 21:24 41.92875 23.96812 37031 ft 485 kts 91°
2026-05-07 21:24 41.92509 24.05850 37032 ft 485 kts 91°
2026-05-07 21:25 41.92135 24.14899 37033 ft 485 kts 92°
2026-05-07 21:25 41.91772 24.23940 37034 ft 485 kts 91°
2026-05-07 21:26 41.91377 24.32973 37022 ft 485 kts 92°
2026-05-07 21:26 41.90980 24.42014 37018 ft 485 kts 92°
2026-05-07 21:27 41.90578 24.51051 37019 ft 485 kts 92°
2026-05-07 21:27 41.90168 24.60103 37019 ft 486 kts 92°
2026-05-07 21:28 41.89754 24.69152 37020 ft 486 kts 92°
2026-05-07 21:28 41.89334 24.78190 37025 ft 486 kts 91°
2026-05-07 21:29 41.88932 24.87233 37021 ft 486 kts 90°
2026-05-07 21:29 41.88519 24.96292 37019 ft 487 kts 91°
2026-05-07 21:30 41.88081 25.05288 37018 ft 486 kts 90°
2026-05-07 21:30 41.87598 25.14398 37016 ft 486 kts 92°
2026-05-07 21:31 41.87149 25.23391 37015 ft 486 kts 90°
2026-05-07 21:31 41.86759 25.32501 37012 ft 486 kts 88°
2026-05-07 21:32 41.86415 25.41549 37013 ft 486 kts 88°
2026-05-07 21:32 41.85855 25.50531 37012 ft 487 kts 94°
2026-05-07 21:33 41.85257 25.59565 36657 ft 486 kts 93°
2026-05-07 21:33 41.84991 25.64059 36200 ft 482 kts 93°
2026-05-07 21:33 41.84734 25.68530 35692 ft 480 kts 93°
2026-05-07 21:34 41.84482 25.72998 35232 ft 478 kts 93°
2026-05-07 21:34 41.84233 25.77420 34784 ft 475 kts 93°
2026-05-07 21:34 41.83985 25.81822 34339 ft 472 kts 94°
2026-05-07 21:34 41.83738 25.86192 33899 ft 469 kts 94°
2026-05-07 21:35 41.83491 25.90534 33469 ft 466 kts 94°
2026-05-07 21:35 41.83259 25.94843 33046 ft 463 kts 93°
2026-05-07 21:35 41.83038 25.99135 32678 ft 458 kts 94°
2026-05-07 21:35 41.82797 26.03378 32306 ft 454 kts 94°
2026-05-07 21:36 41.82547 26.07595 31879 ft 452 kts 94°
2026-05-07 21:36 41.82295 26.11781 31498 ft 449 kts 94°
2026-05-07 21:36 41.82042 26.15942 31105 ft 446 kts 94°
2026-05-07 21:36 41.81791 26.20046 30924 ft 438 kts 95°
2026-05-07 21:37 41.81544 26.24060 30867 ft 427 kts 95°
2026-05-07 21:37 41.81304 26.27977 30813 ft 416 kts 95°
2026-05-07 21:37 41.80842 26.35522 30709 ft 396 kts 95°
2026-05-07 21:38 41.80292 26.42713 30464 ft 383 kts 97°
2026-05-07 21:38 41.79983 26.46246 30200 ft 381 kts 97°
2026-05-07 21:38 41.79679 26.49728 29935 ft 380 kts 97°
2026-05-07 21:39 41.79370 26.53280 29652 ft 379 kts 97°
2026-05-07 21:39 41.79070 26.56732 29393 ft 376 kts 97°
2026-05-07 21:39 41.78766 26.60231 29027 ft 370 kts 97°
2026-05-07 21:39 41.78471 26.63604 28461 ft 368 kts 97°
2026-05-07 21:40 41.78175 26.66998 27882 ft 366 kts 97°
2026-05-07 21:40 41.77881 26.70358 27352 ft 362 kts 97°
2026-05-07 21:40 41.77587 26.73700 26815 ft 359 kts 97°
2026-05-07 21:40 41.77297 26.77000 26290 ft 355 kts 97°
2026-05-07 21:41 41.77008 26.80270 25768 ft 351 kts 97°
2026-05-07 21:41 41.76737 26.83507 25244 ft 348 kts 96°
2026-05-07 21:41 41.76483 26.86716 24724 ft 345 kts 96°
2026-05-07 21:41 41.76225 26.89881 24237 ft 340 kts 97°
2026-05-07 21:42 41.75963 26.93018 23725 ft 337 kts 97°
2026-05-07 21:42 41.75700 26.96127 23186 ft 334 kts 97°
2026-05-07 21:42 41.75436 26.99207 22679 ft 332 kts 97°
2026-05-07 21:42 41.75172 27.02263 22335 ft 332 kts 97°
2026-05-07 21:43 41.74904 27.05344 22014 ft 333 kts 97°
2026-05-07 21:43 41.74634 27.08423 21697 ft 333 kts 97°
2026-05-07 21:43 41.74362 27.11503 21381 ft 333 kts 97°
2026-05-07 21:43 41.74090 27.14584 21067 ft 333 kts 97°
2026-05-07 21:44 41.73816 27.17662 20754 ft 333 kts 97°
2026-05-07 21:44 41.73541 27.20743 20441 ft 333 kts 97°
2026-05-07 21:44 41.73266 27.23816 20128 ft 333 kts 97°
2026-05-07 21:44 41.72989 27.26897 19815 ft 333 kts 97°
2026-05-07 21:45 41.72712 27.29969 19504 ft 333 kts 96°
2026-05-07 21:45 41.72434 27.33044 19191 ft 332 kts 96°
2026-05-07 21:45 41.72155 27.36116 18879 ft 332 kts 96°
2026-05-07 21:45 41.71875 27.39185 18567 ft 332 kts 96°
2026-05-07 21:46 41.71596 27.42246 18256 ft 332 kts 96°
2026-05-07 21:46 41.71318 27.45275 17948 ft 332 kts 96°
2026-05-07 21:46 41.71033 27.48380 17632 ft 331 kts 96°
2026-05-07 21:46 41.70756 27.51393 17326 ft 331 kts 96°
2026-05-07 21:47 41.70469 27.54493 17011 ft 331 kts 96°
2026-05-07 21:47 41.70191 27.57501 16705 ft 330 kts 96°
2026-05-07 21:47 41.69907 27.60550 16395 ft 330 kts 96°
2026-05-07 21:47 41.69620 27.63633 16082 ft 329 kts 96°
2026-05-07 21:48 41.69340 27.66629 15777 ft 329 kts 97°
2026-05-07 21:48 41.69056 27.69662 15468 ft 328 kts 97°
2026-05-07 21:48 41.68771 27.72692 15159 ft 327 kts 97°
2026-05-07 21:48 41.68483 27.75749 14846 ft 327 kts 97°
2026-05-07 21:49 41.68201 27.78719 14547 ft 326 kts 97°
2026-05-07 21:49 41.67916 27.81724 14239 ft 325 kts 97°
2026-05-07 21:49 41.67630 27.84752 13932 ft 324 kts 97°
2026-05-07 21:49 41.67345 27.87734 13628 ft 323 kts 98°
2026-05-07 21:50 41.67061 27.90707 13325 ft 322 kts 98°
2026-05-07 21:50 41.66782 27.93628 13027 ft 320 kts 98°
2026-05-07 21:50 41.66494 27.96618 12730 ft 319 kts 98°
2026-05-07 21:50 41.66215 27.99515 12436 ft 318 kts 98°
2026-05-07 21:51 41.65928 28.02475 12139 ft 316 kts 98°
2026-05-07 21:51 41.65741 28.04403 11943 ft 315 kts 99°
2026-05-07 21:51 41.65368 28.08242 11552 ft 313 kts 98°
2026-05-07 21:51 41.65088 28.11123 11261 ft 311 kts 98°
2026-05-07 21:52 41.64808 28.13976 10970 ft 309 kts 98°
2026-05-07 21:52 41.64528 28.16823 10680 ft 307 kts 98°
2026-05-07 21:52 41.64251 28.19645 10393 ft 305 kts 98°
2026-05-07 21:52 41.63975 28.22446 10107 ft 303 kts 97°
2026-05-07 21:53 41.63700 28.25224 9824 ft 300 kts 97°
2026-05-07 21:53 41.63428 28.27973 9544 ft 297 kts 97°
2026-05-07 21:53 41.63172 28.30701 9268 ft 294 kts 96°
2026-05-07 21:53 41.62921 28.33397 8993 ft 291 kts 96°
2026-05-07 21:54 41.62663 28.36066 8721 ft 288 kts 96°
2026-05-07 21:54 41.62403 28.38701 8453 ft 284 kts 97°
2026-05-07 21:54 41.62146 28.41260 8192 ft 281 kts 97°
2026-05-07 21:54 41.61881 28.43878 7926 ft 278 kts 97°
2026-05-07 21:55 41.61622 28.46419 7667 ft 274 kts 97°
2026-05-07 21:55 41.61364 28.48933 7411 ft 271 kts 97°
2026-05-07 21:55 41.61109 28.51414 7159 ft 268 kts 97°
2026-05-07 21:55 41.60857 28.53856 6910 ft 264 kts 97°
2026-05-07 21:56 41.60607 28.56275 6663 ft 261 kts 97°
2026-05-07 21:56 41.60361 28.58656 6420 ft 257 kts 97°
2026-05-07 21:56 41.60117 28.61009 6180 ft 254 kts 97°
2026-05-07 21:56 41.59877 28.63328 5944 ft 250 kts 97°
2026-05-07 21:57 41.59641 28.65612 5711 ft 247 kts 97°
2026-05-07 21:57 41.59408 28.67864 5481 ft 243 kts 97°
2026-05-07 21:57 41.59149 28.70037 5255 ft 240 kts 103°
2026-05-07 21:57 41.58363 28.71951 5023 ft 233 kts 137°
2026-05-07 21:58 41.56960 28.72748 4984 ft 214 kts 176°
2026-05-07 21:58 41.55547 28.72623 5057 ft 197 kts 184°
2026-05-07 21:58 41.54209 28.72423 4934 ft 191 kts 187°
2026-05-07 21:58 41.52894 28.72284 4703 ft 187 kts 182°
2026-05-07 21:59 41.51602 28.72281 4466 ft 184 kts 179°
2026-05-07 21:59 41.50329 28.72308 4231 ft 182 kts 179°
2026-05-07 21:59 41.49060 28.72333 4005 ft 181 kts 178°
2026-05-07 21:59 41.47804 28.72359 3766 ft 180 kts 178°
2026-05-07 22:00 41.46540 28.72383 3555 ft 183 kts 178°
2026-05-07 22:00 41.45250 28.72409 3310 ft 188 kts 178°
2026-05-07 22:00 41.43951 28.72433 3063 ft 185 kts 178°
2026-05-07 22:00 41.42680 28.72459 2807 ft 178 kts 177°
2026-05-07 22:01 41.41487 28.72482 2579 ft 166 kts 177°
2026-05-07 22:01 41.40380 28.72504 2379 ft 154 kts 177°
2026-05-07 22:01 41.39328 28.72526 2167 ft 149 kts 176°
2026-05-07 22:01 41.38638 28.72539 2056 ft 152 kts 176°
2026-05-07 22:02 41.37579 28.72559 1865 ft 151 kts 176°
2026-05-07 22:02 41.36508 28.72581 1676 ft 157 kts 176°
2026-05-07 22:02 41.35424 28.72602 1461 ft 154 kts 176°
2026-05-07 22:02 41.34364 28.72623 1260 ft 150 kts 175°
2026-05-07 22:03 41.33329 28.72641 1074 ft 146 kts 181°
2026-05-07 22:03 41.32308 28.72555 913 ft 146 kts 180°
2026-05-07 22:03 41.31319 28.72577 712 ft 139 kts 176°
2026-05-07 22:03 41.30341 28.72650 500 ft 142 kts 181°
2026-05-07 22:04 41.29360 28.72687 350 ft 137 kts 185°
2026-05-07 22:04 41.28493 28.72705 334 ft 111 kts 176°
2026-05-07 22:04 41.27851 28.72723 333 ft 75 kts 176°
2026-05-07 22:04 41.27398 28.72736 333 ft 60 kts 176°
2026-05-07 22:05 41.27004 28.72743 333 ft 53 kts 176°
2026-05-07 22:05 41.26778 28.72750 333 ft 19 kts 179°
2026-05-07 22:05 41.26715 28.72848 333 ft 16 kts 90°
2026-05-07 22:05 41.26715 28.72990 333 ft 15 kts 90°
2026-05-07 22:06 41.26718 28.73119 333 ft 14 kts 89°
2026-05-07 22:06 41.26670 28.73208 333 ft 14 kts 172°
2026-05-07 22:06 41.26533 28.73215 333 ft 23 kts 180°
2026-05-07 22:06 41.26373 28.73218 333 ft 22 kts 179°
2026-05-07 22:07 41.26223 28.73222 333 ft 21 kts 178°
2026-05-07 22:07 41.26079 28.73224 333 ft 20 kts 179°
2026-05-07 22:07 41.25941 28.73228 333 ft 19 kts 176°
2026-05-07 22:07 41.25829 28.73265 333 ft 15 kts 115°
2026-05-07 22:08 41.25852 28.73388 333 ft 10 kts 75°
2026-05-07 22:08 41.25845 28.73457 333 ft 6 kts 110°
2026-05-07 22:08 41.25836 28.73495 333 ft 3 kts 108°
2026-05-07 22:08 41.25834 28.73501 333 ft 0 kts 109°
2026-05-07 22:09 41.25834 28.73503 333 ft 0 kts 109°